This demonstration page uses our WeatherBlox Daily Observations layout. Learn more.

Left ArrowRight Arrow

Hourly Observations for April 15, 2019

Temp ( °F °C ) Dew Point ( °F °C ) Humidity (%) Winds ( mph kmh ) Pressure ( in mb ) Visibility ( mi km ) Precip ( " mm )
12:53 am 00:53 Clear 54 12.2 45 7.2 72 72 SE 8 13 29.83 1010 10 16 0.00 0.00
1:53 am 01:53 Clear 53 11.7 45 7.2 74 74 ESE 9 15 29.82 1010 10 16 0.00 0.00
2:53 am 02:53 Clear 53 11.7 44 6.7 72 72 ESE 9 15 29.81 1010 10 16 0.00 0.00
3:53 am 03:53 Clear 52 11.1 43 6.1 72 72 ESE 7 11 29.80 1009 10 16 0.00 0.00
4:53 am 04:53 Clear 51 10.6 43 6.1 74 74 ESE 7 11 29.79 1009 10 16 0.00 0.00
5:53 am 05:53 Clear 50 10 42 5.6 74 74 SE 9 15 29.79 1009 10 16 0.00 0.00
6:53 am 06:53 Clear 50 10 42 5.6 74 74 SE 8 13 29.80 1009 10 16 0.00 0.00
7:53 am 07:53 Sunny 49 9.4 42 5.6 77 77 SE 6 9 29.83 1010 10 16 0.00 0.00
8:53 am 08:53 Sunny 54 12.2 43 6.1 67 67 SSE 9 15 29.86 1011 10 16 0.00 0.00
9:53 am 09:53 Sunny 61 16.1 43 6.1 52 52 SSE 13 20 29.88 1012 10 16 0.00 0.00
10:53 am 10:53 Sunny 66 18.9 42 5.6 42 42 SSE 9 15 29.88 1012 10 16 0.00 0.00
11:53 am 11:53 Sunny 74 23.3 40 4.4 29 29 SSE 9 15 29.86 1011 10 16 0.00 0.00
12:53 pm 12:53 Sunny 79 26.1 37 2.8 22 22 SSE 10 17 29.83 1010 10 16 0.00 0.00
1:53 pm 13:53 Sunny 81 27.2 36 2.2 20 20 SSE 8 13 29.80 1009 10 16 0.00 0.00
2:53 pm 14:53 Sunny 85 29.4 30 -1.1 14 14 S 14 22 29.77 1008 10 16 0.00 0.00
3:53 pm 15:53 Sunny 87 30.6 28 -2.2 12 12 SE 10 17 29.73 1007 10 16 0.00 0.00
4:53 pm 16:53 Sunny 87 30.6 37 2.8 17 17 SSE 14 22 29.72 1006 10 16 0.00 0.00
5:53 pm 17:53 Sunny 86 30 34 1.1 15 15 SE 15 24 29.70 1006 10 16 0.00 0.00
6:53 pm 18:53 Sunny 84 28.9 34 1.1 17 17 SE 20 31 29.70 1006 10 16 0.00 0.00
7:53 pm 19:53 Sunny 80 26.7 37 2.8 21 21 SE 15 24 29.71 1006 10 16 0.00 0.00
8:53 pm 20:53 Clear 75 23.9 40 4.4 28 28 SE 14 22 29.72 1007 10 16 0.00 0.00
9:53 pm 21:53 Clear 73 22.8 42 5.6 33 33 SE 17 28 29.73 1007 10 16 0.00 0.00
10:53 pm 22:53 Clear 70 21.1 45 7.2 41 41 SE 14 22 29.75 1007 10 16 0.00 0.00
11:53 pm 23:53 Clear 68 20 46 7.8 45 45 SE 14 22 29.74 1007 10 16 0.00 0.00

Powered by AerisWeather